Погода Гышгы

Погода Гышгы : погода сейчас, прогноз погоды и архив. Всё, что Вы хотите узнать о погоде Гышгы!

Поиск расширенной информации на нашем сайте:

Другие новости

Новости СМИ2

Главная страница сайта

Новости сайта

02.10.2013

Напоминаем, что на нашем новом сайте вы можете получить высокодетализированные прогнозы погоды по пунктам России, СНГ и мира (включающие важные для авиации метеовеличины, такие как направление и скорость ветра, видимость, явления погоды, количество и форма облачности, нижняя и верхняя граница облачности), а также ознакомиться с разнообразными материалами по авиационной метеорологии и подборкой полезных ссылок на эту тему.

Сайт Метеоцентр.Азия посвящён разработке технологий оптимизации авиаметеорологического обслуживания, включая проектирование и перспективное создание нескольких автоматизированных авиаметеорологических систем:
- система выпуска высокодетальных прогностических карт явлений погоды для нижнего воздушного пространства по России и ближнему зарубежью;
- система верификации прогнозов TAF (выпускаемых синоптиками официальных АМСГ РФ и ближнего зарубежья) и AUTOTAF (выпускаемых сайтом Метеоцентр.Азия) - выявление ошибок, онлайн-сопоставление с фактической погодой METAR, автоматическое внесение коррективов в прогнозы при резком отклонении фактической погоды от прогноза, подсчёт оправдываемости прогнозов по элементам и в целом;
- система обработки, анализа и отображения авиаметеорологической информации для применения провайдерами метеорологической информации.

Рекомендуем: Paprika паприка пицца вегетарианская pizza vegetariana.

Погода Гышгы - сегодня

Время (UTC), дата Ветер
(°,м/с) 
Видим.   Явления Облачность Т
(°С)
Тd
(°С)
f(%) Тe
(°С)
Pmin
(гПа)
dP
(гПа)
Po
(мм)
O2
(г/м3)
Тmin Tmax R s Состояние
почвы
18 27.03.17 250 (З) 4000 м    4/0 верхняя 
[Ci sp]
+13.9 +12.4 91 +21  1018.6  0.1  710  270    +21.6       
21 27.03.17 240 (ЮЗ) 4000 м    4/0 верхняя 
[Ci sp]
+12.5 +11.3 92 +18  1018.4  -0.6  709  271           
00 28.03.17 230 (ЮЗ) 4000 м    ясно 
+10.9 +10.2 95 +15  1017.8  -0.9  709  273           
03 28.03.17 230 (ЮЗ) 4000 м    6/0 средняя 
[Ac cast]
+10.1 +9 93 +11  1018.1  709  274           
06 28.03.17 210 (ЮЗ) 4000 м    8/0 средняя 
[Ac As]
+17.2 +11.1 67 +22  1016.6  0.5  709  267  +10.1         
09 28.03.17 220 (ЮЗ) 4000 м    3/3 1500 м 
[Cu hum]
+24.4 +5.9 30 +24  1014  -1  708  261           
12 28.03.17 220 (ЮЗ) 4000 м    4/0 верхняя 
[Ci fib]
+25.2 +6.1 29 +25  1012.3  -1.3  707  260           
15 28.03.17 230 (ЮЗ) 4000 м    3/0 верхняя 
[Ci fib]
+19.6 +11 58 +25  1014.1  0.4  707  264    +25.6       
18 28.03.17 220 (ЮЗ) 4000 м    ясно 
+14.9 +11.5 80 +20  1016.3  708  268    +25.6       
21 28.03.17 240 (ЮЗ) 4000 м    ясно 
+12.8 +10.5 86 +17  1016.8  708  271           
00 29.03.17 350 (С) 4000 м  в посл. час ливневой дождь{гроза}  6/6 600 м кучево-дожд. 
[Cb cap]
+13.6 +9.9 78 +16  1014.9  -1.7  707  269           
03 29.03.17 270 (З) 4000 м  {гроза}  8/8 600 м кучево-дожд. 
[Cb cap]
+15.3 +9.9 70 +18  1015  0.5  707  268      0.4     
06 29.03.17 010 (С) 4000 м  {ливн. осадки}  9/8 1000 м кучево-дожд., верхняя 
[Cb calv|Cc]
+20.3 +11.9 58 +25  1014.5  0.8  708  263  +12.8    0.4     
09 29.03.17 060 (СВ) 4000 м    5/0 средняя, верхняя 
[Ac cuf|Cc]
+21.8 +12.5 55 +28  1012  -2  706  261           
12 29.03.17 070 (В) 4000 м    9/9 600 м кучево-дожд., средняя 
[Cb cap|Ac cuf]
+22.2 +13.8 59 +30  1009.1  -2.5  705  260           
15 29.03.17 060 (СВ) 4000 м  {гроза, ливн. осадки}  9/6 600 м кучево-дожд., верхняя 
[Cb cap|Ci sp]
+18.6 +11.8 65 +25  1012.7  2.5  706  264    +23.3     
18 29.03.17 090 (В) 4000 м  {гроза}  9/0 средняя 
[Ac As]
+13.2 +11.3 88 +17  1019.2  4.7  710  271    +23.3     
21 29.03.17 020 (С) 4000 м  в посл. час ливневой дождь{гроза}  10/10 600 м кучево-дожд. 
[Cb cap]
+13.6 +11.8 89 +20  1020.3  1.1  711  270           
00 30.03.17 010 (С) 4000 м  {гроза}  10/10 600 м кучево-дожд. 
[Cb cap]
+12.2 +8.1 76 +12  1022.6  1.7  712  273           
03 30.03.17 060 (СВ) 4000 м    9/0 средняя 
[Ac As]
+11.4 +7.7 78 +11  1026.3  3.2  714  275      0.7     
06 30.03.17 010 (С) 4000 м    10/10 1000 м 
[Sc]
+11.4 +8.1 80 +11  1028.6  2.1  716  275  +11.2    0.7     
09 30.03.17 030 (СВ) 4000 м    10/10 600 м 
[Sc]
+12.7 +8.1 74 +13  1027.1  -1  715  274           
12 30.03.17 050 (СВ) 4000 м    10/10 1000 м 
[Sc]
+12.4 +7.4 72 +12  1025.5  -1.6  714  274           
15 30.03.17 040 (СВ) 4000 м    10/10 1000 м 
[Sc]
+12.6 +8.8 78 +14  1025  -0.4  714  273    +12.9       
18 30.03.17 060 (СВ) 4000 м    10/10 600 м 
[Sc]
+12.1 +8.6 79 +13  1023.6  -1.3  713  273    +12.9       
Время (UTC), дата Ветер
(°,м/с) 
Видим.   Явления Облачность Т
(°С)
Тd
(°С)
f(%) Тe
(°С)
Pmin
(гПа)
dP
(гПа)
Po
(мм)
O2
(г/м3)
Тmin Tmax R s Состояние
почвы

Для получения пояснительной информации подведите курсор к названию столбца.

ПОГОДА Гышгы - архив

Всё, что Вы хотите узнать о погоде Гышгы - удобно и подробно!

Выберите нужную дату (начиная с 1 января 2015* года) и нажмите кнопку "Найти".
Будут отображены архивные сводки погоды по пункту Гышгы, начиная с указанной даты.


Отображать данные в формате CSV (для использования в таблицах Excel)


Внимание! Наш архив погоды предназначен исключительно для личного некоммерческого использования в познавательных целях. Если Вам необходимы официальные справки о состоянии погоды (для производственных, юридических, коммерческих и т.п. целей), обращайтесь в органы Росгидромета.

*Примечание: данная дата относится к архиву по метеостанциям СССР (Россия, СНГ, Балтия).
Архив по метеостанциям Зарубежной Европы и Азии (кроме Китая) хранится 10 дней, по другим регионам земного шара (Китай, Африка, Америка, Австралия, Океания) - 1 день.

Гышгы - район местоположения метеостанции


Название, широта, долгота, высота метеостанции:
Гышгы (Кушка) 35.3°ш. 62.3°д. 625 м над ур. моря [Туркменистан]

Дополнительная информация

В oтличие oт бoльшинства пoгoдных сайтoв мы публикуем пoдрoбную метеoинфoрмацию в детальнoм прoфессиoнальнoм фoрмате.

Характеристики температуры и влажнoсти вoздуха измеряются на высoте 2 м в тени вдали oт зданий и деревьев.
Скoрoсть ветра измеряется на высoте 10 м (на урoвне рoста челoвека скoрoсть ветра ниже в 1.5-2 раза). Если метеoстанция нахoдится в гoрoде или в лесу, тo скoрoсть ветра занижена на 2-4 м/с пo сравнению с oткрытым местoм. Скoрoсть ветра над акватoриями крупных рек и oзёр, а также на вершинах хoлмoв на 2-5 м/с выше, чем в oбычных услoвиях.
Атмoсфернoе давление в разных тoчках местнoсти мoжет значительнo oтличаться oт давления на метеoстанции, в зависимoсти oт услoвий рельефа (при пoдъёме на 10 м давление пoнижается примернo на 1 мм рт.ст.).